Tracking 19490 objects as of 24-Jan-2019
HD Live streaming from Space Station
objects crossing your sky now

FENGYUN 1C DEB

Track FENGYUN 1C DEB now!
10-day predictions


NORAD ID: 30356
Int'l Code: 1999-025ABT
Perigee: 833.6 km
Apogee: 915.9 km
Inclination: 98.8 °
Period: 102.3 minutes
Semi major axis: 7245 km
RCS: 0.038 m2 (small)
Launch date: May 10, 1999
Source: People's Republic of China (PRC)
Launch site: Taiyaun Space Center, China (TSC)

Note: This is SATELLITE DEBRIS
aabbcc
Your satellite tracking list
Your tracking list is empty




NASA's NSSDC Master Catalog

Two Line Element Set (TLE):
1 30356U 99025ABT 19023.61791088 +.00000092 +00000-0 +78768-4 0  9998
2 30356 098.8296 067.7156 0056727 205.1257 283.8147 14.07595569615974
Source of the keplerian elements: AFSPC